Probability
13 15 19 21 20 18 17 16 13 12 12 12 12 10 9 8 7 6 4 2 2 3 4 2 1 2 3 3 3 3 3 3 3 3 5 6 6 6 5 5 5 5 3
13 16 20 21 19 17 16 15 13 12 11 11 10 9 7 6 5 4 3 2 1 2 3 2 0 1 3 3 3 3 3 3 3 2 2 4 5 5 5 5 5 5 4
12 15 18 19 18 15 13 12 12 10 10 9 8 7 5 4 3 3 2 1 0 1 2 2 1 1 2 3 3 3 3 3 3 2 1 1 3 4 4 4 5 5 5
9 11 13 14 14 11 10 10 10 9 9 8 7 6 4 3 2 2 1 1 0 0 1 2 2 2 3 3 3 3 4 4 3 3 1 1 3 3 3 3 4 5 5
7 7 8 9 9 9 9 9 8 7 7 7 6 5 3 1 1 1 0 0 0 0 0 1 2 2 2 2 3 3 4 4 4 3 3 3 3 3 3 4 4 4 4
6 6 7 7 7 8 8 7 6 6 6 6 6 4 2 1 0 0 0 0 0 0 0 0 1 1 1 1 1 2 3 3 3 3 3 3 2 3 4 4 4 3 2
6 6 7 7 7 7 7 6 6 7 7 7 7 5 3 2 1 0 0 0 0 0 0 0 0 0 0 0 0 1 1 1 2 1 1 1 1 1 1 2 2 1 0
6 6 7 7 7 8 8 7 8 8 8 9 10 8 5 3 1 0 0 0 0 0 0 0 0 0 0 0 1 2 2 1 1 0 0 0 0 0 0 1 1 0 0
5 5 6 8 9 10 10 10 9 8 7 8 9 8 7 3 1 0 0 0 0 0 0 0 0 0 0 0 1 2 3 2 1 0 0 0 0 0 1 1 0 0 0
4 4 5 8 11 12 12 11 9 7 6 5 6 7 8 5 2 0 0 0 0 0 0 1 0 0 0 0 0 1 2 2 1 0 0 0 0 0 0 0 0 0 0
3 4 5 8 10 11 11 10 8 6 4 3 4 7 8 6 2 0 0 0 0 0 0 0 0 0 0 0 0 0 1 2 2 1 0 0 0 0 0 0 0 0 0
4 5 6 7 8 8 8 8 8 5 4 3 4 6 6 4 1 0 0 0 0 0 0 0 0 0 0 0 0 0 0 1 2 1 0 0 0 0 0 0 0 0 1
5 6 6 6 6 6 6 5 6 5 3 2 3 3 4 3 1 0 0 0 0 0 0 0 0 0 0 0 0 0 1 1 1 0 0 0 1 0 0 0 0 0 1
6 6 6 6 6 6 5 4 4 3 2 1 1 1 2 2 1 0 0 0 0 0 0 0 0 0 0 0 0 0 1 1 1 0 0 0 0 0 0 0 0 0 1
6 6 6 6 6 6 5 4 3 3 2 1 0 0 1 1 1 0 0 0 0 0 0 0 0 0 0 0 0 0 0 0 0 0 0 0 0 0 0 0 0 0 0
7 7 6 6 6 6 5 4 3 3 2 1 0 0 0 0 0 0 0 0 0 0 0 0 0 0 0 0 0 0 0 0 0 1 0 0 0 0 0 0 0 0 0
6 6 5 4 4 4 5 4 2 1 1 0 0 0 0 0 0 0 0 0 0 0 0 0 0 0 0 0 0 0 0 0 0 0 0 0 0 0 0 0 0 0 0
4 4 4 3 3 3 3 2 1 1 1 1 0 0 0 0 0 0 0 0 0 0 0 0 0 0 0 0 0 0 0 0 0 0 0 0 0 0 0 0 0 0 0
1 2 2 2 3 3 2 1 0 1 2 1 0 0 0 0 0 0 0 0 0 0 0 0 0 0 1 1 1 1 1 1 0 0 0 0 0 0 0 0 0 0 0
0 1 1 1 1 2 1 0 0 0 1 1 0 0 0 0 0 0 0 0 0 1 1 1 0 0 0 1 1 2 2 1 0 0 0 1 0 0 0 0 0 0 0
1 0 0 0 0 0 0 0 0 0 0 0 0 0 0 0 0 0 0 0 0 1 2 1 0 0 0 0 1 1 1 1 0 0 0 0 0 0 0 0 0 0 0
2 1 0 0 0 0 0 0 0 0 0 0 0 1 0 0 0 0 0 0 0 0 1 1 0 0 0 0 0 0 0 0 0 0 0 0 0 0 0 0 0 0 0
2 1 0 0 0 0 0 0 0 0 0 0 0 1 1 1 1 1 1 0 0 0 0 0 0 0 0 0 0 0 0 0 0 0 0 0 0 0 0 0 0 0 0
2 1 0 0 0 0 0 0 0 0 0 0 0 0 1 2 3 3 2 0 0 0 0 0 0 1 1 1 0 0 0 0 0 0 0 0 0 0 0 0 0 0 0
2 2 1 0 0 0 0 0 0 0 0 0 0 0 1 1 2 2 1 0 0 0 0 0 0 1 2 1 0 0 0 0 0 0 0 0 0 0 0 0 0 0 0
2 2 1 0 0 0 0 0 0 0 0 0 0 0 0 0 1 0 0 0 0 0 0 0 0 1 1 1 0 0 0 0 0 0 0 0 0 0 0 0 0 0 0
Wind_Speed
2 2 2 2 2 2 1 1 1 1 1 1 1 1 1 2 2 1 2 2 2 2 3 2 2 2 2 2 2 2 2 2 4 4 3 2 3 3 3 3 3 4 5
2 2 2 2 2 1 1 1 1 1 1 1 1 1 2 1 1 1 2 2 2 2 3 2 3 2 2 2 2 3 2 3 3 5 4 3 3 3 2 3 4 4 4
2 2 2 2 2 1 1 1 1 1 1 2 1 1 1 1 1 1 2 2 2 2 2 2 2 2 2 2 3 3 3 4 3 4 5 3 2 2 2 3 4 3 5
2 2 2 2 1 1 2 2 2 1 1 1 1 0 0 1 2 2 2 2 2 2 2 2 2 1 2 3 3 3 3 4 4 4 4 3 2 2 2 3 3 3 4
2 2 2 2 2 1 1 1 1 1 1 0 0 0 0 0 2 3 3 2 2 2 3 2 2 1 1 2 3 3 4 3 4 4 4 3 3 2 2 3 4 3 3
2 2 2 2 2 1 1 1 0 1 1 1 0 0 1 1 2 2 3 3 2 3 3 3 2 1 2 4 5 5 4 4 4 4 4 4 4 3 3 4 4 4 4
1 1 1 1 1 1 1 1 0 0 0 0 1 0 1 2 2 2 2 2 3 2 3 3 4 2 2 2 3 4 5 6 6 4 4 5 4 3 3 4 4 4 5
2 2 2 2 1 1 1 1 0 1 1 1 1 0 1 0 1 0 2 2 3 3 3 3 2 2 3 3 3 3 3 3 4 3 4 4 4 3 3 4 4 4 4
2 2 1 1 1 1 1 1 1 1 1 1 1 1 1 1 1 1 1 2 3 3 3 3 2 1 1 2 2 3 4 3 4 4 5 5 5 6 5 3 3 3 4
1 1 1 1 1 1 1 1 1 1 1 1 1 2 2 1 2 3 3 2 3 3 3 2 2 1 1 1 2 3 4 4 4 5 4 5 5 5 6 3 3 3 3
1 1 0 1 1 2 1 1 1 1 1 2 1 1 2 2 3 4 4 3 3 4 3 2 1 1 2 3 3 4 5 5 5 5 4 3 2 2 2 3 3 3 3
1 1 0 1 2 1 2 2 2 2 2 3 2 2 2 2 3 4 5 6 5 3 4 3 1 3 4 6 5 6 8 6 4 4 3 3 2 2 2 2 3 4 4
1 1 1 1 1 1 2 3 2 3 2 2 2 3 2 2 3 5 6 7 7 4 4 5 5 7 7 6 7 8 6 4 3 3 3 3 2 2 2 2 2 3 4
2 2 2 2 2 2 2 2 2 2 3 3 2 2 1 1 1 1 2 3 4 4 5 6 7 8 7 6 5 4 4 4 3 3 2 2 2 2 2 2 2 2 3
2 2 2 3 2 1 1 1 2 1 2 2 1 1 1 1 1 1 1 2 2 2 3 3 3 3 3 3 3 3 3 2 3 2 2 2 2 2 2 2 2 3 3
2 2 3 3 2 2 2 2 1 2 2 2 2 2 1 1 2 2 3 2 2 2 2 4 4 3 3 2 2 2 2 2 2 2 2 2 2 2 3 3 2 2 3
3 3 3 3 3 4 3 3 2 2 3 4 4 4 5 4 4 4 4 4 4 2 2 4 3 3 3 3 2 2 2 2 2 1 1 2 2 3 3 3 2 3 3
4 4 4 3 3 3 3 3 3 3 3 3 5 7 8 7 7 6 3 2 3 2 3 4 3 3 3 3 3 2 2 2 2 2 2 2 2 2 3 3 2 3 3
4 4 3 4 4 4 3 3 3 3 3 2 2 2 6 7 7 5 2 3 5 4 3 3 3 3 2 2 2 2 2 2 2 2 2 2 2 3 3 3 3 4 3
4 5 4 4 5 4 3 3 3 3 3 2 2 1 2 2 3 3 3 4 4 4 3 3 2 2 2 2 2 2 2 2 3 2 2 2 2 3 3 3 3 3 3
4 4 5 5 5 4 3 3 3 3 3 2 1 2 3 2 2 2 2 3 3 3 2 3 3 2 2 2 2 3 3 3 3 3 3 3 3 3 3 3 3 3 3
4 4 4 4 4 3 3 3 3 3 2 2 1 2 4 3 2 2 1 1 2 2 2 2 3 2 1 2 2 2 2 3 4 4 3 4 3 3 3 3 3 3 3
5 4 3 4 3 3 3 3 3 2 2 1 2 1 2 2 2 2 1 1 2 2 2 1 2 2 2 2 2 2 3 3 3 4 4 4 4 4 3 3 4 4 3
5 4 4 4 3 3 3 3 2 2 2 1 1 2 2 1 1 1 1 1 1 2 2 1 2 3 4 3 2 2 3 3 4 4 5 5 5 4 3 3 3 4 3
5 4 4 3 2 2 3 2 2 2 2 1 2 1 2 2 1 1 1 1 2 2 2 2 2 3 4 4 4 4 3 4 4 4 5 4 4 4 3 4 3 3 2
5 5 4 3 2 2 2 2 2 2 2 2 1 1 1 2 2 1 1 1 1 2 2 2 3 3 4 4 4 4 4 4 5 5 5 3 3 3 3 3 3 3 2
Wind_Direction
176 169 156 160 167 154 168 204 196 227 246 245 246 253 256 266 276 289 277 286 297 292 291 292 295 301 309 299 304 296 289 282 283 292 293 284 266 264 255 246 236 214 215
159 154 148 142 152 157 185 186 198 234 257 247 235 263 263 278 289 297 302 323 311 297 299 302 302 303 307 301 304 298 291 277 278 288 291 285 279 267 265 260 264 251 231
156 160 160 166 171 183 198 192 199 223 250 250 249 255 314 345 340 312 294 298 296 301 308 305 304 316 318 308 299 301 298 302 288 282 285 279 282 286 288 281 281 272 264
166 164 167 162 170 199 213 211 216 226 250 257 284 319 10 1 360 343 329 316 314 322 317 305 307 318 313 307 304 309 302 299 290 283 283 287 290 300 294 284 286 278 273
160 162 164 165 175 203 229 237 236 238 253 278 345 326 318 30 25 360 338 330 327 320 316 308 304 319 324 300 306 313 308 299 299 294 291 300 301 317 302 296 296 295 287
173 169 174 178 180 197 209 219 281 326 1 18 355 350 9 27 54 37 8 345 328 315 311 310 292 263 273 266 270 281 288 285 289 290 294 299 303 308 306 303 305 306 296
179 183 171 180 179 188 210 158 165 211 301 292 304 80 78 48 64 49 4 322 306 300 297 299 304 326 323 310 288 284 279 270 256 263 285 288 291 294 295 295 294 293 287
180 181 188 193 168 162 157 156 197 196 199 210 267 69 102 9 132 56 328 292 287 285 284 283 290 307 335 329 311 305 292 288 263 243 250 270 283 284 275 279 286 294 286
192 196 192 176 166 175 183 184 204 195 202 217 210 186 177 236 202 236 282 292 289 279 271 274 276 286 338 346 320 310 307 306 305 287 264 269 278 289 290 299 297 301 301
219 217 191 166 180 211 197 174 178 201 233 236 216 202 200 201 191 213 232 271 285 284 273 255 257 269 295 307 305 304 301 303 313 310 297 280 265 267 262 242 258 279 291
244 245 208 159 189 203 171 167 180 204 214 239 235 224 220 208 197 210 220 255 282 295 295 286 262 230 261 270 275 270 274 290 296 290 281 273 263 254 238 217 226 245 269
263 248 230 183 229 212 166 186 199 210 221 231 232 243 232 204 209 219 223 237 262 289 295 299 295 268 271 272 268 262 273 286 279 280 282 281 281 283 271 247 234 234 237
239 243 218 210 230 206 196 194 206 211 226 233 230 235 234 216 211 216 221 237 250 257 284 296 293 271 271 265 256 259 265 265 266 275 283 281 275 275 278 271 261 252 249
217 217 215 217 219 230 232 221 218 220 237 241 245 256 263 228 212 206 225 242 256 264 278 286 279 267 261 260 273 260 240 243 257 270 278 285 294 288 281 272 273 271 267
225 222 234 237 233 240 236 258 240 240 236 254 278 290 283 293 296 255 262 269 284 305 306 280 268 267 263 253 249 251 249 247 256 266 277 292 295 295 287 272 261 276 277
235 235 241 237 233 231 221 233 272 238 218 208 214 238 288 228 228 261 273 286 291 301 287 273 277 279 284 283 286 291 287 282 281 280 284 295 299 299 296 291 286 279 278
244 248 255 250 242 241 233 223 225 231 240 246 237 231 227 236 247 266 284 303 295 262 256 271 279 288 293 298 295 295 298 299 294 292 288 293 298 301 300 297 294 289 288
248 247 258 257 255 256 252 244 232 225 225 235 233 230 228 235 247 258 281 327 289 243 256 272 285 285 288 291 294 304 309 316 311 301 292 291 289 286 290 294 296 297 297
256 257 256 269 260 252 244 247 242 235 238 228 211 211 224 237 249 259 236 250 272 279 274 276 283 290 299 309 310 302 302 314 311 300 295 290 290 288 291 293 289 291 288
249 262 262 268 274 261 249 252 252 244 243 241 217 176 174 201 224 224 217 245 264 276 289 298 296 289 291 303 311 305 310 318 315 312 309 301 293 289 292 298 301 295 289
259 253 245 255 269 275 272 267 267 263 259 250 237 184 185 215 230 233 227 238 262 276 291 296 293 302 320 324 325 322 329 331 328 331 330 313 299 295 293 291 296 295 296
267 263 252 259 266 283 292 279 273 277 278 273 233 183 198 239 268 271 255 259 273 275 276 291 302 313 332 326 320 315 331 335 335 335 327 316 310 303 299 300 307 308 305
271 268 256 254 259 263 265 268 273 278 287 299 302 267 222 245 265 284 302 338 325 308 308 313 316 325 340 338 343 359 355 342 326 317 312 305 304 303 307 312 313 311 314
273 272 268 259 255 259 267 273 287 293 290 301 309 297 284 285 304 338 357 350 334 331 334 334 337 341 352 355 3 21 14 345 324 312 310 303 301 306 315 313 307 310 314
273 272 270 266 256 263 273 274 281 296 304 300 286 293 309 307 318 350 15 7 351 338 332 333 334 347 6 20 23 19 3 346 335 325 311 300 299 304 308 305 306 313 323
276 280 282 280 278 273 272 274 275 279 284 284 286 304 309 303 314 335 2 4 352 343 339 348 354 8 16 28 38 27 9 348 335 325 310 296 296 312 317 313 322 333 345